DLH87L EDDM-EDDC

Flight info

Callsign DLH87L
Flight time 0h 37m
Altitude 30000
Route INPUD2N/26R INPUD Y102 UPALA M726 LONLI/N0419F290 L984 KULOK Z715 ABKIS Q240 DRN
Aircraft A20N/M-V/N

Departure

Time 2026-05-07 17:34
Airport Munich Airport (EDDM)

Arrival

Time 2026-05-07 18:12
Airport Dresden Airport (EDDC)
Time Latitude Longitude Altitude Speed Heading
2026-05-07 17:12 48.35352 11.79312 1467 ft 0 kts 263°
2026-05-07 17:23 48.35353 11.79325 1456 ft 2 kts 262°
2026-05-07 17:23 48.35355 11.79350 1463 ft 2 kts 264°
2026-05-07 17:23 48.35356 11.79375 1456 ft 2 kts 265°
2026-05-07 17:23 48.35358 11.79400 1458 ft 2 kts 266°
2026-05-07 17:24 48.35358 11.79425 1462 ft 2 kts 270°
2026-05-07 17:24 48.35358 11.79449 1457 ft 2 kts 279°
2026-05-07 17:24 48.35351 11.79472 1456 ft 2 kts 349°
2026-05-07 17:24 48.35335 11.79476 1462 ft 2 kts 350°
2026-05-07 17:25 48.35319 11.79480 1462 ft 2 kts 349°
2026-05-07 17:25 48.35303 11.79484 1458 ft 2 kts 350°
2026-05-07 17:25 48.35298 11.79486 1456 ft 0 kts 351°
2026-05-07 17:26 48.35300 11.79485 1456 ft 1 kts 351°
2026-05-07 17:27 48.35329 11.79478 1459 ft 7 kts 351°
2026-05-07 17:27 48.35390 11.79473 1463 ft 10 kts 15°
2026-05-07 17:27 48.35457 11.79539 1463 ft 13 kts 37°
2026-05-07 17:27 48.35544 11.79574 1465 ft 14 kts 348°
2026-05-07 17:28 48.35651 11.79556 1463 ft 17 kts 354°
2026-05-07 17:28 48.35772 11.79535 1465 ft 18 kts 353°
2026-05-07 17:28 48.35894 11.79514 1464 ft 18 kts 354°
2026-05-07 17:28 48.35982 11.79500 1464 ft 10 kts 353°
2026-05-07 17:29 48.36016 11.79494 1458 ft 0 kts 353°
2026-05-07 17:29 48.36017 11.79493 1459 ft 1 kts 353°
2026-05-07 17:30 48.36042 11.79489 1465 ft 7 kts 353°
2026-05-07 17:30 48.36121 11.79475 1459 ft 15 kts 353°
2026-05-07 17:30 48.36213 11.79503 1460 ft 12 kts 71°
2026-05-07 17:30 48.36229 11.79656 1468 ft 17 kts 83°
2026-05-07 17:31 48.36246 11.79872 1468 ft 24 kts 83°
2026-05-07 17:31 48.36267 11.80158 1464 ft 30 kts 84°
2026-05-07 17:31 48.36293 11.80485 1459 ft 32 kts 84°
2026-05-07 17:31 48.36320 11.80826 1467 ft 33 kts 84°
2026-05-07 17:32 48.36348 11.81171 1467 ft 33 kts 82°
2026-05-07 17:32 48.36373 11.81517 1463 ft 33 kts 83°
2026-05-07 17:32 48.36395 11.81824 1462 ft 24 kts 84°
2026-05-07 17:32 48.36390 11.81975 1459 ft 16 kts 89°
2026-05-07 17:33 48.36495 11.82002 1464 ft 13 kts 353°
2026-05-07 17:33 48.36591 11.81984 1463 ft 15 kts 353°
2026-05-07 17:33 48.36671 11.81912 1460 ft 15 kts 280°
2026-05-07 17:33 48.36655 11.81660 1466 ft 47 kts 264°
2026-05-07 17:34 48.36589 11.80817 1465 ft 112 kts 263°
2026-05-07 17:34 48.36476 11.79390 1476 ft 160 kts 264°
2026-05-07 17:34 48.36333 11.77680 1913 ft 169 kts 265°
2026-05-07 17:34 48.36205 11.75867 2499 ft 181 kts 266°
2026-05-07 17:35 48.36090 11.73897 2946 ft 197 kts 268°
2026-05-07 17:35 48.35990 11.71760 3521 ft 213 kts 268°
2026-05-07 17:35 48.35872 11.69457 4189 ft 228 kts 272°
2026-05-07 17:35 48.36315 11.67092 4799 ft 248 kts 301°
2026-05-07 17:36 48.37561 11.65281 5528 ft 261 kts 330°
2026-05-07 17:36 48.39349 11.64538 6443 ft 269 kts 352°
2026-05-07 17:36 48.41243 11.64372 6826 ft 274 kts 354°
2026-05-07 17:36 48.43142 11.64200 6992 ft 273 kts 348°
2026-05-07 17:37 48.44943 11.63436 7270 ft 273 kts 338°
2026-05-07 17:37 48.46731 11.62442 8165 ft 273 kts 336°
2026-05-07 17:37 48.48518 11.61425 9199 ft 277 kts 336°
2026-05-07 17:37 48.50341 11.60407 10082 ft 283 kts 336°
2026-05-07 17:38 48.52240 11.59369 10655 ft 301 kts 336°
2026-05-07 17:38 48.54289 11.58264 10989 ft 324 kts 337°
2026-05-07 17:38 48.56468 11.57103 11578 ft 336 kts 338°
2026-05-07 17:38 48.58711 11.55917 12450 ft 340 kts 338°
2026-05-07 17:39 48.61006 11.55106 13257 ft 347 kts 348°
2026-05-07 17:39 48.63444 11.54529 14061 ft 352 kts 348°
2026-05-07 17:39 48.65843 11.53979 14843 ft 354 kts 348°
2026-05-07 17:39 48.68290 11.53436 15611 ft 357 kts 348°
2026-05-07 17:40 48.70763 11.52897 16355 ft 361 kts 349°
2026-05-07 17:40 48.73259 11.52358 17110 ft 364 kts 349°
2026-05-07 17:40 48.75772 11.51816 17856 ft 366 kts 348°
2026-05-07 17:40 48.78308 11.51269 18545 ft 370 kts 348°
2026-05-07 17:41 48.80871 11.50715 19183 ft 373 kts 349°
2026-05-07 17:41 48.83447 11.50157 19817 ft 376 kts 349°
2026-05-07 17:41 48.86050 11.49592 20430 ft 379 kts 349°
2026-05-07 17:41 48.88678 11.49022 21037 ft 383 kts 349°
2026-05-07 17:42 48.91325 11.48447 21650 ft 386 kts 349°
2026-05-07 17:42 48.93998 11.47865 22241 ft 390 kts 349°
2026-05-07 17:42 48.96690 11.47280 22833 ft 393 kts 349°
2026-05-07 17:42 48.99411 11.46687 23405 ft 397 kts 349°
2026-05-07 17:43 49.02154 11.46089 23934 ft 400 kts 349°
2026-05-07 17:43 49.04919 11.45486 24423 ft 402 kts 349°
2026-05-07 17:43 49.07696 11.44881 24937 ft 405 kts 349°
2026-05-07 17:43 49.10493 11.44269 25419 ft 407 kts 349°
2026-05-07 17:44 49.13309 11.43653 25890 ft 410 kts 349°
2026-05-07 17:44 49.16143 11.43032 26349 ft 413 kts 349°
2026-05-07 17:44 49.18996 11.42406 26805 ft 415 kts 349°
2026-05-07 17:44 49.21864 11.41777 27247 ft 418 kts 349°
2026-05-07 17:45 49.24747 11.41143 27682 ft 420 kts 349°
2026-05-07 17:45 49.27650 11.40505 28107 ft 423 kts 349°
2026-05-07 17:45 49.30569 11.39861 28501 ft 425 kts 349°
2026-05-07 17:45 49.33535 11.39464 28866 ft 430 kts 358°
2026-05-07 17:46 49.36522 11.39995 29213 ft 437 kts 11°
2026-05-07 17:46 49.39396 11.41571 29577 ft 443 kts 23°
2026-05-07 17:46 49.42157 11.43706 29925 ft 446 kts 25°
2026-05-07 17:46 49.44903 11.45955 30049 ft 447 kts 26°
2026-05-07 17:47 49.50374 11.50472 30047 ft 446 kts 26°
2026-05-07 17:47 49.55857 11.54944 30031 ft 446 kts 26°
2026-05-07 17:48 49.61331 11.59394 30015 ft 445 kts 26°
2026-05-07 17:48 49.66800 11.63847 30017 ft 444 kts 26°
2026-05-07 17:49 49.71338 11.67553 30010 ft 443 kts 26°
2026-05-07 17:49 49.77704 11.72764 30015 ft 443 kts 26°
2026-05-07 17:50 49.82221 11.76472 30020 ft 442 kts 26°
2026-05-07 17:50 49.87649 11.80938 30016 ft 441 kts 26°
2026-05-07 17:51 49.90359 11.83171 29819 ft 441 kts 26°
2026-05-07 17:51 49.93059 11.85400 29527 ft 438 kts 26°
2026-05-07 17:51 49.95740 11.87616 29243 ft 435 kts 26°
2026-05-07 17:51 49.99267 11.90535 29028 ft 433 kts 26°
2026-05-07 17:52 50.03726 11.94232 29029 ft 434 kts 26°
2026-05-07 17:52 50.09010 11.98623 29005 ft 433 kts 26°
2026-05-07 17:53 50.11703 12.00864 28722 ft 433 kts 26°
2026-05-07 17:53 50.14356 12.03077 28181 ft 431 kts 26°
2026-05-07 17:53 50.16951 12.05244 27621 ft 426 kts 26°
2026-05-07 17:53 50.19547 12.07415 27063 ft 421 kts 26°
2026-05-07 17:54 50.22116 12.09566 26516 ft 416 kts 26°
2026-05-07 17:54 50.24652 12.11691 25984 ft 412 kts 26°
2026-05-07 17:54 50.27169 12.13803 25457 ft 410 kts 26°
2026-05-07 17:54 50.29668 12.15901 25127 ft 405 kts 26°
2026-05-07 17:55 50.32109 12.18076 25043 ft 406 kts 32°
2026-05-07 17:55 50.34278 12.20951 25038 ft 412 kts 45°
2026-05-07 17:55 50.36016 12.24532 25037 ft 415 kts 57°
2026-05-07 17:55 50.37376 12.28525 25035 ft 415 kts 60°
2026-05-07 17:56 50.38715 12.32517 24783 ft 414 kts 60°
2026-05-07 17:56 50.40058 12.36513 24155 ft 415 kts 60°
2026-05-07 17:56 50.41395 12.40497 23614 ft 408 kts 60°
2026-05-07 17:56 50.42700 12.44395 23007 ft 401 kts 60°
2026-05-07 17:57 50.43995 12.48264 22412 ft 401 kts 60°
2026-05-07 17:57 50.45287 12.52128 21828 ft 399 kts 60°
2026-05-07 17:57 50.46570 12.55975 21253 ft 397 kts 60°
2026-05-07 17:57 50.47843 12.59799 20683 ft 393 kts 61°
2026-05-07 17:58 50.49104 12.63593 20129 ft 391 kts 61°
2026-05-07 17:58 50.50357 12.67370 19585 ft 389 kts 61°
2026-05-07 17:58 50.51603 12.71127 19049 ft 387 kts 61°
2026-05-07 17:58 50.52842 12.74871 18522 ft 385 kts 62°
2026-05-07 17:59 50.54073 12.78595 17952 ft 383 kts 62°
2026-05-07 17:59 50.55311 12.82272 17350 ft 379 kts 57°
2026-05-07 17:59 50.56915 12.85515 16766 ft 374 kts 47°
2026-05-07 17:59 50.58685 12.88498 16170 ft 371 kts 45°
2026-05-07 18:00 50.60460 12.91417 15584 ft 368 kts 45°
2026-05-07 18:00 50.62203 12.94337 15013 ft 365 kts 46°
2026-05-07 18:00 50.63910 12.97265 14450 ft 362 kts 47°
2026-05-07 18:00 50.65603 13.00212 13910 ft 363 kts 47°
2026-05-07 18:01 50.67263 13.03129 13302 ft 362 kts 47°
2026-05-07 18:01 50.68933 13.06077 12687 ft 360 kts 47°
2026-05-07 18:01 50.70599 13.09020 12044 ft 359 kts 47°
2026-05-07 18:01 50.72263 13.11964 11408 ft 359 kts 47°
2026-05-07 18:02 50.75566 13.17818 10163 ft 352 kts 47°
2026-05-07 18:02 50.77172 13.20668 9507 ft 343 kts 47°
2026-05-07 18:02 50.78760 13.23491 8856 ft 335 kts 47°
2026-05-07 18:03 50.80274 13.26185 8218 ft 329 kts 47°
2026-05-07 18:03 50.81778 13.28864 7584 ft 323 kts 47°
2026-05-07 18:03 50.83255 13.31497 6960 ft 318 kts 47°
2026-05-07 18:03 50.84710 13.34096 6346 ft 313 kts 47°
2026-05-07 18:04 50.86135 13.36641 5841 ft 304 kts 47°
2026-05-07 18:04 50.87506 13.39094 5446 ft 292 kts 47°
2026-05-07 18:04 50.88821 13.41450 5144 ft 278 kts 47°
2026-05-07 18:04 50.90052 13.43660 5050 ft 256 kts 47°
2026-05-07 18:05 50.91179 13.45684 5048 ft 233 kts 47°
2026-05-07 18:05 50.92231 13.47460 5048 ft 210 kts 41°
2026-05-07 18:05 50.93299 13.48991 5052 ft 210 kts 39°
2026-05-07 18:05 50.94385 13.50512 5051 ft 207 kts 39°
2026-05-07 18:06 50.95466 13.52019 5052 ft 207 kts 39°
2026-05-07 18:06 50.96546 13.53552 4993 ft 208 kts 41°
2026-05-07 18:06 50.97576 13.55045 4779 ft 192 kts 39°
2026-05-07 18:06 50.98548 13.56377 4489 ft 179 kts 38°
2026-05-07 18:07 50.99459 13.57624 4233 ft 167 kts 38°
2026-05-07 18:07 51.00313 13.58793 4003 ft 157 kts 39°
2026-05-07 18:07 51.01114 13.59890 3793 ft 149 kts 38°
2026-05-07 18:07 51.01908 13.60976 3593 ft 150 kts 39°
2026-05-07 18:08 51.02691 13.62050 3391 ft 147 kts 39°
2026-05-07 18:08 51.03453 13.63094 3200 ft 140 kts 39°
2026-05-07 18:08 51.04164 13.64069 3009 ft 134 kts 39°
2026-05-07 18:08 51.04867 13.65033 2829 ft 134 kts 40°
2026-05-07 18:09 51.05566 13.65992 2638 ft 133 kts 39°
2026-05-07 18:09 51.06267 13.66954 2461 ft 133 kts 39°
2026-05-07 18:09 51.06959 13.67904 2275 ft 132 kts 39°
2026-05-07 18:09 51.07649 13.68851 2103 ft 131 kts 39°
2026-05-07 18:10 51.08339 13.69799 1917 ft 130 kts 39°
2026-05-07 18:10 51.09017 13.70731 1735 ft 130 kts 39°
2026-05-07 18:10 51.09701 13.71670 1539 ft 129 kts 39°
2026-05-07 18:10 51.10366 13.72587 1347 ft 129 kts 40°
2026-05-07 18:11 51.11051 13.73517 1201 ft 129 kts 39°
2026-05-07 18:11 51.11511 13.74144 1055 ft 130 kts 39°
2026-05-07 18:11 51.12394 13.75362 825 ft 129 kts 40°
2026-05-07 18:11 51.13026 13.76225 751 ft 110 kts 41°
2026-05-07 18:12 51.13448 13.76813 740 ft 53 kts 41°
2026-05-07 18:12 51.13669 13.77120 730 ft 50 kts 41°
2026-05-07 18:12 51.13888 13.77427 723 ft 12 kts 53°
2026-05-07 18:12 51.13856 13.77593 718 ft 20 kts 130°
2026-05-07 18:13 51.13794 13.77705 717 ft 15 kts 139°
2026-05-07 18:13 51.13707 13.77653 716 ft 16 kts 219°
2026-05-07 18:13 51.13612 13.77521 721 ft 21 kts 222°
2026-05-07 18:13 51.13491 13.77359 729 ft 24 kts 219°
2026-05-07 18:14 51.13372 13.77196 737 ft 23 kts 221°
2026-05-07 18:14 51.13264 13.77045 745 ft 19 kts 221°
2026-05-07 18:14 51.13164 13.76908 745 ft 20 kts 221°
2026-05-07 18:14 51.13062 13.76766 746 ft 20 kts 221°
2026-05-07 18:15 51.12950 13.76612 751 ft 23 kts 220°
2026-05-07 18:15 51.12828 13.76446 752 ft 22 kts 221°
2026-05-07 18:15 51.12729 13.76306 754 ft 14 kts 221°
2026-05-07 18:15 51.12670 13.76316 753 ft 8 kts 132°
2026-05-07 18:16 51.12658 13.76345 754 ft 4 kts 134°
2026-05-07 18:16 51.12638 13.76377 753 ft 3 kts 129°
2026-05-07 18:16 51.12634 13.76386 753 ft 0 kts 129°
2026-05-07 18:16 51.12633 13.76387 751 ft 0 kts 130°